Content
SEND FEEDBACK

Daily
Averages
Monthly
Summary
Germany

LEIPHEIM, GERMANY


Home > Europe > Germany
Elevation: 1566 feet     Latitude: 48 26N     Longitude: 010 14E

WEATHER
 
SELECT A DAY
Number of Records: 51,461;   Date Range: 9/3/98 - 7/27/14
 
SHARE

PRINT THIS DATA

[ ← Previous Day ]
WEATHER ALMANAC - JANUARY 23, 2013
[ Next Day → ]
[ °C ]   °F
Weather ElementAverageHighLow
Temperature24.4 °F28.4 °F (4:20 am)17.6 °F (9:20 pm)
Dewpoint23.9 °F28.4 °F (2:20 pm)15.8 °F (9:20 pm)
Humidity98.1 %100 % (1:20 am)93 % (4:20 am)
Barometer29.66 in29.68 in (9:20 am)29.65 in (1:20 am)
Wind Speed2.4 mph3.5 mph (3:20 am)
Weather ElementAverage
Visibility2.1 mi
Wind DirectionSE (131.4 °)

Weather ElementTotal
Precipitation---
Heating Degree Days42 (Base 65)
Averaged from 29 records on January 23, 2013
WEATHER CONDITIONS BREAKOUT
WIND DIRECTION BREAKOUT
WEATHER BY HOUR - JANUARY 23, 2013
[ °C ]   °F
Local TimeTemperatureDewpointHumidityBarometerVisibilityWind DirectionWind SpeedGust SpeedPrecipitationEventsConditions
1:20 AM26.6 °F26.6 °F100 %29.65 in5.0 miVariable1.2 mphMostly Cloudy
2:20 AM24.8 °F24.8 °F100 %29.65 in3.7 miSSE (150°)2.3 mphMostly Cloudy
3:20 AM26.6 °F26.6 °F100 %29.65 in3.1 miSouth (180°)3.5 mphMostly Cloudy
4:20 AM28.4 °F26.6 °F93 %29.65 in2.8 miSSW (200°)3.5 mphMostly Cloudy
5:20 AM26.6 °F26.6 °F100 %29.65 in2.8 miSE (140°)2.3 mphMostly Cloudy
6:20 AM24.8 °F24.8 °F100 %29.65 in3.1 miSSE (160°)3.5 mphScattered Clouds
6:37 AM24.8 °F24.8 °F100 %29.65 in2.5 miSSE (150°)2.3 mphScattered Clouds
6:52 AM24.8 °F24.8 °F100 %29.65 in0.3 miVariable2.3 mphFogLight Freezing Fog
7:20 AM21.2 °F21.2 °F100 %29.65 in0.3 miENE (60°)3.5 mphFogLight Freezing Fog
8:20 AM23.0 °F23.0 °F100 %29.65 in0.2 miNorth (360°)2.3 mphFogLight Freezing Fog
9:20 AM24.8 °F24.8 °F100 %29.68 in0.2 miENE (60°)1.2 mphFogLight Freezing Fog
10:20 AM24.8 °F24.8 °F100 %29.68 in0.1 miESE (120°)2.3 mphFogLight Freezing Fog
11:20 AM24.8 °F24.8 °F100 %29.68 in0.1 miWNW (290°)1.2 mphFogLight Freezing Fog
12:20 PM24.8 °F24.8 °F100 %29.65 in0.1 miSouth (190°)2.3 mphFogLight Freezing Fog
1:20 PM24.8 °F24.8 °F100 %29.65 in0.1 miNorth (10°)3.5 mphFogLight Freezing Fog
2:20 PM28.4 °F28.4 °F100 %29.65 in0.0 miVariable1.2 mphFogLight Freezing Fog
2:26 PM26.6 °F24.8 °F93 %29.65 inNorth (360°)2.3 mphFogMostly Cloudy
2:35 PM26.6 °F24.8 °F93 %29.65 in3.1 miNorth (360°)2.3 mphFogFog
3:20 PM26.6 °F24.8 °F93 %29.65 in5.0 miNorth (10°)3.5 mphMostly Cloudy
4:20 PM26.6 °F24.8 °F93 %29.65 in5.0 miNorth (10°)2.3 mphMostly Cloudy
5:00 PM24.8 °F24.8 °F100 %29.68 in5.0 miNNE (30°)3.5 mphMostly Cloudy
5:20 PM24.8 °F24.8 °F100 %29.68 in3.7 miNE (40°)3.5 mphMostly Cloudy
6:20 PM24.8 °F24.8 °F100 %29.68 inNorth (10°)2.3 mphMostly Cloudy
7:20 PM23.0 °F23.0 °F100 %29.68 in0.6 miVariable1.2 mphFogLight Freezing Fog
8:20 PM19.4 °F17.6 °F93 %29.68 in0.2 miSouth (170°)2.3 mphFogLight Freezing Fog
9:20 PM17.6 °F15.8 °F93 %29.68 in0.2 miSSW (210°)3.5 mphFogLight Freezing Fog
10:12 PM19.4 °F17.6 °F93 %29.68 in3.1 miSouth (170°)2.3 mphMostly Cloudy
10:20 PM19.4 °F19.4 °F100 %29.68 in3.1 miSouth (190°)2.3 mphMostly Cloudy
11:20 PM23.0 °F23.0 °F100 %29.68 in3.1 miSouth (180°)1.2 mphMostly Cloudy
Hourly data recorded from ETHL, located miles away from Leipheim, Germany







STORIES FROM OUR PARTNERS